HISPASAT 30W-5

Last updated on Thu Oct 30 2025 00:02:48 GMT+0000 (Coordinated Universal Time)

1 37264U 10070A 25302.40808860 -.00000205 00000+0 00000+0 0 9992 2 37264 0.0428 98.2722 0004412 90.7001 325.9622 1.00274344 50870
UTC large
Height (km)
Speed (km/s)
/
Latitude / Longitude
Inclination (degrees)
Orbital Period (minutes)
Azimuth
Elevation
Range (km)
Doppler Factor

Next 0 passes for location: London (51.5072 / 0.1276)

Sorry there are no passes over London.